Flag for Congo Dem.Rep. Weather past 2 weeks in Kinshasa, Congo Dem.Rep.

Now
77 °F

Clear.


Feels Like: 79 °F
Forecast: 65 / 87 °F
Wind: 5 mph from Northeast

Location: Brazzaville / Maya-Maya

Current Time: Jul 24, 2014 at 7:32:09 PM

Latest Report: Jul 24, 2014 at 6:00 PM


Visibility: 4 mi

Pressure: 30.01 "Hg

Humidity: 69%

Dew point: 66 °F

Location of KinshasaLocation

Historic Weather in Kinshasa — Graph

°F

Kinshasa temperature yesterday

Maximum temperature yesterday: 77 °F (at 2:00 PM)
Minimum temperature yesterday: 66 °F (at 1:00 AM)
Average temperature yesterday: 72 °F

Past Weeks' High & Low Weather Summary

 TemperatureHumidityPressure
High86 °F (Jul 16, 4:00 PM)94% (Jul 11, 6:00 AM)30.12 "Hg (Jul 11, 6:00 AM)
Low63 °F (Jul 12, 5:58 AM)49% (Jul 16, 4:00 PM)29.89 "Hg (Jul 16, 3:00 PM)
Average73 °F75%30.03 "Hg
* Reported Jul 9 6:00 PM — Jul 24 6:00 PM, Kinshasa, Weather by CustomWeather, © 2014

Note: Actual official high and low records may vary slightly from our data, if they occured in-between our weather recording intervals... More about our weather records

Advertising

Kinshasa weather history for previous 24 hours

 ConditionsComfort  
Time TempWeatherWind HumidityBarometerVisibility
6:00 PM
Jul 24
77 °FClear.5 mph69%30.01 "Hg4 mi
5:00 PM79 °FPassing clouds.1 mph61%29.98 "Hg4 mi
4:00 PM79 °FPartly sunny.6 mph61%29.98 "Hg4 mi
3:00 PM79 °FMore clouds than sun.3 mph58%29.98 "Hg5 mi
2:00 PM79 °FMore clouds than sun.6 mph61%30.01 "Hg5 mi
1:00 PM77 °FMore clouds than sun.8 mph65%30.04 "Hg5 mi
12:00 PM75 °FMore clouds than sun.9 mph69%30.07 "Hg5 mi
11:00 AM75 °FMore clouds than sun.7 mph69%30.12 "Hg5 mi
10:00 AM72 °FOvercast.9 mph73%30.12 "Hg5 mi
9:00 AM72 °FOvercast.9 mph73%30.12 "Hg5 mi
8:00 AM72 °FMore clouds than sun.6 mph69%30.12 "Hg5 mi
7:00 AM70 °FOvercast.3 mph78%30.09 "Hg5 mi
6:00 AM70 °FMostly cloudy.3 mph78%30.07 "Hg5 mi
5:00 AM70 °FPassing clouds.5 mph78%30.07 "Hg5 mi
4:00 AM70 °FPassing clouds.5 mph83%30.07 "Hg5 mi
3:00 AMN/AOvercast.3 mphN/A30.07 "Hg5 mi
2:00 AM70 °FOvercast.3 mph83%30.07 "Hg5 mi
1:00 AM72 °FOvercast.3 mph78%30.07 "Hg4 mi
12:00 AM72 °FOvercast.5 mph73%30.07 "Hg4 mi
11:00 PM
Jul 23
72 °FOvercast.7 mph73%30.09 "Hg4 mi
10:00 PM73 °FOvercast.8 mph74%30.09 "Hg4 mi
9:00 PM73 °FOvercast.7 mph74%30.07 "Hg4 mi
8:00 PM73 °FOvercast.5 mph74%30.04 "Hg4 mi
7:00 PM75 °FOvercast.6 mph69%30.04 "Hg4 mi
Weather by CustomWeather, © 2014

See weather overviewHow to use our weather pages